DW4879 Weather Reports


time (UTC)temp
C
wind
direction
speed
KPH
gust
KPH
rain 1hr
cm
rain 24hr
cm
rain mn
cm
humidity
%
barometer
mb
20260505225553 17 219 4.8 24.1 0.00 0.00 0.00 28 1011.2
20260505225100 17 222 6.4 19.3 0.00 0.00 0.00 28 1011.1
20260505224605 17 222 8.0 17.7 0.00 0.00 0.00 27 1011.3
20260505224007 17 280 8.0 20.9 0.00 0.00 0.00 27 1011.2
20260505223603 17 225 3.2 20.9 0.00 0.00 0.00 28 1011.3
20260505223015 17 167 8.0 16.1 0.00 0.00 0.00 29 1011.5
20260505222605 17 182 8.0 16.1 0.00 0.00 0.00 30 1011.7
20260505222005 17 272 4.8 17.7 0.00 0.00 0.00 30 1011.7
20260505221605 17 221 6.4 17.7 0.00 0.00 0.00 31 1011.8
20260505221104 17 236 11.3 19.3 0.00 0.00 0.00 30 1011.7
20260505220505 18 198 8.0 17.7 0.00 0.00 0.00 30 1011.8
20260505220056 18 187 3.2 14.5 0.00 0.00 0.00 30 1011.9
20260505215554 18 244 8.0 25.7 0.00 0.00 0.00 31 1011.9
20260505215100 18 250 9.7 27.4 0.00 0.00 0.00 30 1012.0
20260505214508 18 232 12.9 25.7 0.00 0.00 0.00 30 1012.0
20260505214008 18 219 11.3 22.5 0.00 0.00 0.00 30 1012.1
20260505213512 18 185 9.7 25.7 0.00 0.00 0.00 30 1012.0
20260505213003 18 188 16.1 25.7 0.00 0.00 0.00 29 1012.1
20260505212557 18 223 8.0 20.9 0.00 0.00 0.00 29 1012.2
20260505212001 18 180 14.5 20.9 0.00 0.00 0.00 28 1012.3
20260505211556 19 264 4.8 17.7 0.00 0.00 0.00 28 1012.4
20260505211103 19 196 9.7 19.3 0.00 0.00 0.00 27 1012.3
20260505210553 19 209 12.9 19.3 0.00 0.00 0.00 28 1012.5
20260505210049 19 217 6.4 29.0 0.00 0.00 0.00 25 1012.5
20260505205551 19 311 8.0 29.0 0.00 0.00 0.00 26 1012.6
20260505205057 18 281 14.5 27.4 0.00 0.00 0.00 25 1012.6
20260505204612 19 309 6.4 22.5 0.00 0.00 0.00 25 1012.7
20260505204056 20 311 16.1 22.5 0.00 0.00 0.00 24 1012.7
20260505203603 20 220 9.7 19.3 0.00 0.00 0.00 24 1012.8
20260505203005 19 256 9.7 17.7 0.00 0.00 0.00 26 1012.7
20260505202512 18 205 6.4 19.3 0.00 0.00 0.00 26 1012.9
20260505202003 18 277 4.8 29.0 0.00 0.00 0.00 27 1013.0
20260505201512 18 294 4.8 25.7 0.00 0.00 0.00 27 1013.1
20260505201001 17 103 11.3 25.7 0.00 0.00 0.00 28 1013.0
20260505200507 18 208 11.3 22.5 0.00 0.00 0.00 27 1013.2
20260505195502 18 296 6.4 17.7 0.00 0.00 0.00 26 1013.4
20260505195010 18 230 4.8 17.7 0.00 0.00 0.00 26 1013.5
20260505194501 18 123 3.2 17.7 0.00 0.00 0.00 26 1013.5
20260505194013 18 207 3.2 20.9 0.00 0.00 0.00 24 1013.6
20260505193607 19 196 11.3 27.4 0.00 0.00 0.00 24 1013.7
20260505193005 19 188 8.0 27.4 0.00 0.00 0.00 25 1013.7
20260505192600 18 250 3.2 27.4 0.00 0.00 0.00 24 1013.7
20260505192103 20 173 8.0 27.4 0.00 0.00 0.00 23 1013.7
20260505191506 20 212 11.3 19.3 0.00 0.00 0.00 23 1013.7
20260505191103 19 213 4.8 19.3 0.00 0.00 0.00 23 1013.8
20260505190506 18 169 1.6 25.7 0.00 0.00 0.00 23 1013.8
20260505190011 18 166 3.2 29.0 0.00 0.00 0.00 23 1013.8
20260505185518 18 187 17.7 40.2 0.00 0.00 0.00 24 1013.8
20260505185027 17 211 8.0 40.2 0.00 0.00 0.00 24 1013.8
20260505184532 17 284 3.2 16.1 0.00 0.00 0.00 24 1013.9
20260505184041 17 309 3.2 16.1 0.00 0.00 0.00 24 1014.0
20260505183550 17 277 6.4 19.3 0.00 0.00 0.00 24 1014.1
20260505183047 17 298 4.8 19.3 0.00 0.00 0.00 24 1014.1
20260505182543 17 303 9.7 16.1 0.00 0.00 0.00 25 1014.1
20260505182049 17 220 1.6 11.3 0.00 0.00 0.00 24 1014.1
20260505181600 16 144 4.8 19.3 0.00 0.00 0.00 24 1014.0
20260505181103 16 294 3.2 20.9 0.00 0.00 0.00 25 1014.2
20260505180505 16 273 4.8 19.3 0.00 0.00 0.00 25 1014.2
20260505180027 16 282 9.7 20.9 0.00 0.00 0.00 25 1014.2
20260505175534 16 254 12.9 20.9 0.00 0.00 0.00 25 1014.3
20260505175038 16 285 3.2 20.9 0.00 0.00 0.00 24 1014.2
20260505174546 16 304 9.7 20.9 0.00 0.00 0.00 24 1014.3
20260505174038 16 300 8.0 20.9 0.00 0.00 0.00 25 1014.1
20260505173545 16 298 9.7 20.9 0.00 0.00 0.00 25 1014.1
20260505173034 16 338 11.3 20.9 0.00 0.00 0.00 25 1014.2
20260505172540 16 275 9.7 22.5 0.00 0.00 0.00 25 1014.3
20260505172046 16 214 8.0 22.5 0.00 0.00 0.00 24 1014.2
20260505171536 16 209 8.0 16.1 0.00 0.00 0.00 24 1014.2
20260505171042 16 218 4.8 16.1 0.00 0.00 0.00 25 1014.1
20260505170547 16 290 4.8 20.9 0.00 0.00 0.00 24 1014.2
20260505170054 15 294 12.9 20.9 0.00 0.00 0.00 25 1014.1
20260505165545 15 299 11.3 19.3 0.00 0.00 0.00 25 1014.0
20260505165051 16 306 11.3 19.3 0.00 0.00 0.00 24 1014.0
20260505164602 16 271 8.0 20.9 0.00 0.00 0.00 24 1014.0
20260505164105 16 311 9.7 17.7 0.00 0.00 0.00 24 1014.0
20260505163508 15 304 8.0 17.7 0.00 0.00 0.00 25 1013.9
20260505163014 15 285 4.8 17.7 0.00 0.00 0.00 25 1013.9
20260505162504 15 346 8.0 24.1 0.00 0.00 0.00 25 1014.1
20260505162012 15 325 4.8 24.1 0.00 0.00 0.00 27 1014.1
20260505161504 15 337 8.0 27.4 0.00 0.00 0.00 26 1014.2
20260505161009 14 296 16.1 27.4 0.00 0.00 0.00 26 1014.4
20260505160601 14 290 8.0 20.9 0.00 0.00 0.00 27 1014.3
20260505153120 12 296 6.4 14.5 0.00 0.00 0.00 32 1014.5
20260505152558 12 267 6.4 14.5 0.00 0.00 0.00 32 1014.6
20260505152106 12 281 9.7 14.5 0.00 0.00 0.00 33 1014.7
20260505151554 12 311 4.8 12.9 0.00 0.00 0.00 32 1014.6
20260505151101 12 306 6.4 12.9 0.00 0.00 0.00 33 1014.6
20260505150553 13 360 8.0 14.5 0.00 0.00 0.00 30 1014.6
20260505140501 11 277 3.2 8.0 0.00 0.00 0.00 39 1014.9
20260505140108 11 284 3.2 11.3 0.00 0.00 0.00 39 1015.0
20260505124504 10 290 6.4 14.5 0.00 0.00 0.00 42 1015.1
20260505124058 10 311 3.2 14.5 0.00 0.00 0.00 42 1015.3
20260505123502 10 313 6.4 14.5 0.00 0.00 0.00 42 1015.2
20260505123100 10 288 6.4 12.9 0.00 0.00 0.00 42 1015.2
20260505122606 10 304 4.8 17.7 0.00 0.00 0.00 42 1015.1
20260505122054 10 265 9.7 17.7 0.00 0.00 0.00 42 1015.0
20260505121545 10 300 6.4 12.9 0.00 0.00 0.00 42 1015.0
20260505121053 10 294 4.8 14.5 0.00 0.00 0.00 42 1015.1
20260505120542 10 294 6.4 14.5 0.00 0.00 0.00 43 1015.1
20260505120100 10 325 4.8 11.3 0.00 0.00 0.00 42 1015.2
20260505115554 10 296 3.2 6.4 0.00 0.00 0.00 42 1015.2
20260505115103 10 306 3.2 9.7 0.00 0.00 0.00 41 1015.2
20260505114504 11 305 4.8 16.1 0.00 0.00 0.00 41 1015.2
20260505114011 11 273 8.0 16.1 0.00 0.00 0.00 41 1015.1
20260505113503 11 304 9.7 17.7 0.00 0.00 0.00 41 1015.0
20260505113009 11 271 9.7 17.7 0.00 0.00 0.00 41 1015.0
20260505112606 11 294 9.7 16.1 0.00 0.00 0.00 41 1015.1
20260505112055 11 257 6.4 17.7 0.00 0.00 0.00 40 1015.1
20260505111603 11 261 6.4 12.9 0.00 0.00 0.00 40 1015.1
20260505111010 11 297 4.8 11.3 0.00 0.00 0.00 39 1015.0
20260505110513 11 242 1.6 12.9 0.00 0.00 0.00 39 1015.0
20260505102009 11 282 6.4 11.3 0.00 0.00 0.00 35 1015.0
20260505101605 11 282 4.8 9.7 0.00 0.00 0.00 35 1015.0
20260505101008 11 286 3.2 12.9 0.00 0.00 0.00 35 1015.1
20260505100513 11 272 4.8 12.9 0.00 0.00 0.00 35 1015.0
20260505100104 11 293 4.8 12.9 0.00 0.00 0.00 35 1014.9
20260505095502 12 272 4.8 16.1 0.00 0.00 0.00 35 1014.9
20260505095007 12 287 8.0 16.1 0.00 0.00 0.00 35 1014.7
20260505094603 12 302 8.0 17.7 0.00 0.00 0.00 35 1014.8
20260505094003 12 246 9.7 19.3 0.00 0.00 0.00 34 1014.9
20260505093511 12 292 9.7 22.5 0.00 0.00 0.00 34 1014.8
20260505093017 12 289 11.3 22.5 0.00 0.00 0.00 34 1014.8
20260505092522 12 321 11.3 22.5 0.00 0.00 0.00 34 1014.8
20260505092029 12 286 9.7 22.5 0.00 0.00 0.00 34 1014.7
20260505091534 12 273 12.9 20.9 0.00 0.00 0.00 34 1014.7
20260505091041 12 260 9.7 29.0 0.00 0.00 0.00 33 1014.8
20260505090548 12 291 12.9 25.7 0.00 0.00 0.00 33 1014.7
20260505090039 12 292 14.5 24.1 0.00 0.00 0.00 33 1014.9
20260505085547 12 273 9.7 19.3 0.00 0.00 0.00 33 1014.8
20260505085057 12 301 8.0 22.5 0.00 0.00 0.00 33 1015.0
20260505084602 12 200 11.3 22.5 0.00 0.00 0.00 33 1015.0
20260505084054 12 306 9.7 20.9 0.00 0.00 0.00 33 1015.0
20260505083600 12 265 12.9 22.5 0.00 0.00 0.00 32 1015.0
20260505083105 12 298 11.3 22.5 0.00 0.00 0.00 32 1015.1
20260505082508 12 273 11.3 25.7 0.00 0.00 0.00 31 1015.0
20260505082014 12 281 12.9 25.7 0.00 0.00 0.00 31 1015.1
20260505081521 12 279 8.0 17.7 0.00 0.00 0.00 31 1015.2
20260505081029 13 272 9.7 19.3 0.00 0.00 0.00 30 1015.2
20260505080533 13 244 9.7 19.3 0.00 0.00 0.00 29 1015.2
20260505080039 13 270 11.3 22.5 0.00 0.00 0.00 28 1015.3
20260505075544 13 291 14.5 22.5 0.00 0.00 0.00 28 1015.1
20260505075050 13 280 9.7 16.1 0.00 0.00 0.00 27 1015.2
20260505074555 13 255 8.0 17.7 0.00 0.00 0.00 26 1015.3
20260505074046 13 315 8.0 24.1 0.00 0.00 0.00 26 1015.2
20260505073554 13 284 11.3 24.1 0.00 0.00 0.00 26 1015.2
20260505073043 13 260 12.9 27.4 0.00 0.00 0.00 25 1015.3
20260505072551 13 279 9.7 24.1 0.00 0.00 0.00 25 1015.2
20260505072057 13 259 11.3 29.0 0.00 0.00 0.00 25 1015.4
20260505071548 13 260 11.3 29.0 0.00 0.00 0.00 25 1015.4
20260505071056 13 305 8.0 20.9 0.00 0.00 0.00 24 1015.4
20260505070602 13 324 11.3 24.1 0.00 0.00 0.00 24 1015.3
20260505070005 13 258 12.9 24.1 0.00 0.00 0.00 23 1015.4
20260505065601 13 273 12.9 17.7 0.00 0.00 0.00 23 1015.4
20260505065004 13 273 6.4 12.9 0.00 0.00 0.00 22 1015.4
20260505064602 13 288 4.8 14.5 0.00 0.00 0.00 22 1015.3
20260505064105 13 257 4.8 14.5 0.00 0.00 0.00 22 1015.2
20260505063556 13 265 4.8 14.5 0.00 0.00 0.00 21 1015.2
20260505063047 13 279 6.4 14.5 0.00 0.00 0.00 22 1015.1
20260505062555 13 270 6.4 12.9 0.00 0.00 0.00 22 1015.1
20260505062100 13 265 4.8 12.9 0.00 0.00 0.00 21 1015.1
20260505061505 13 276 4.8 14.5 0.00 0.00 0.00 20 1015.0
20260505061059 13 271 6.4 14.5 0.00 0.00 0.00 20 1015.1
20260505060503 13 286 6.4 11.3 0.00 0.00 0.00 20 1014.9
20260505060040 14 281 6.4 17.7 0.00 0.00 0.00 20 1014.9
20260505055547 14 284 6.4 17.7 0.00 0.00 0.00 20 1015.0
20260505055055 14 267 8.0 17.7 0.00 0.00 0.00 20 1015.0
20260505054600 14 281 8.0 16.1 0.00 0.00 0.00 19 1014.9
20260505054053 14 257 4.8 17.7 0.00 0.00 0.00 19 1014.9
20260505053556 14 244 4.8 22.5 0.00 0.00 0.00 19 1014.9
20260505053109 15 176 6.4 22.5 0.00 0.00 0.00 19 1014.9
20260505052538 15 222 8.0 19.3 0.00 0.00 0.00 19 1014.9
20260505052044 15 225 4.8 12.9 0.00 0.00 0.00 18 1014.9
20260505051550 15 224 8.0 17.7 0.00 0.00 0.00 19 1015.0
20260505051100 15 194 8.0 17.7 0.00 0.00 0.00 19 1015.0
20260505050549 15 217 8.0 19.3 0.00 0.00 0.00 19 1014.9
20260505050104 15 258 8.0 14.5 0.00 0.00 0.00 20 1014.6
20260505041552 15 280 3.2 9.7 0.00 0.00 0.00 20 1014.5
20260505041057 15 280 4.8 12.9 0.00 0.00 0.00 21 1014.4
20260505040501 15 288 6.4 12.9 0.00 0.00 0.00 21 1014.5
20260505040056 15 309 4.8 12.9 0.00 0.00 0.00 22 1014.5
20260505035604 16 292 6.4 12.9 0.00 0.00 0.00 22 1014.4
20260505035054 16 295 6.4 11.3 0.00 0.00 0.00 23 1014.3
20260505034618 16 292 3.2 6.4 0.00 0.00 0.00 23 1014.3
20260505034051 16 275 3.2 14.5 0.00 0.00 0.00 23 1014.3
20260505033543 16 284 8.0 16.1 0.00 0.00 0.00 23 1014.4
20260505033053 16 297 6.4 20.9 0.00 0.00 0.00 24 1014.3
20260505032553 16 271 3.2 9.7 0.00 0.00 0.00 24 1014.2
20260505032106 16 271 1.6 4.8 0.00 0.00 0.00 24 1014.1
20260505031555 16 259 1.6 4.8 0.00 0.00 0.00 24 1014.0
20260505031058 16 248 0.0 12.9 0.00 0.00 0.00 25 1013.8
20260505030551 16 268 1.6 12.9 0.00 0.00 0.00 24 1013.9
20260505030055 16 258 0.0 4.8 0.00 0.00 0.00 25 1013.8
20260505025546 16 255 1.6 4.8 0.00 0.00 0.00 24 1013.8
20260505025037 16 287 1.6 4.8 0.00 0.00 0.00 24 1013.8
20260505024544 16 234 0.0 4.8 0.00 0.00 0.00 24 1013.7
20260505024035 16 234 0.0 4.8 0.00 0.00 0.00 24 1013.8
20260505023541 17 199 1.6 4.8 0.00 0.00 0.00 24 1013.8
20260505023049 17 261 0.0 3.2 0.00 0.00 0.00 23 1013.6
20260505022555 17 261 0.0 3.2 0.00 0.00 0.00 23 1013.6
20260505022046 17 257 0.0 3.2 0.00 0.00 0.00 23 1013.5
20260505021554 17 257 0.0 4.8 0.00 0.00 0.00 23 1013.6
20260505021059 17 257 0.0 4.8 0.00 0.00 0.00 23 1013.6
20260505020502 17 263 0.0 3.2 0.00 0.00 0.00 23 1013.5
20260505020105 17 266 0.0 4.8 0.00 0.00 0.00 23 1013.4
20260505015554 18 261 1.6 4.8 0.00 0.00 0.00 22 1013.5
20260505015100 18 284 0.0 3.2 0.00 0.00 0.00 23 1013.4
20260505014504 18 279 0.0 4.8 0.00 0.00 0.00 23 1013.4
20260505014058 18 309 0.0 4.8 0.00 0.00 0.00 23 1013.4
20260505013502 18 273 0.0 4.8 0.00 0.00 0.00 23 1013.3
20260505013101 18 277 0.0 11.3 0.00 0.00 0.00 22 1013.5
20260505012603 18 311 4.8 11.3 0.00 0.00 0.00 22 1013.5
20260505012053 18 297 1.6 9.7 0.00 0.00 0.00 22 1013.4
20260505011603 18 267 4.8 9.7 0.00 0.00 0.00 22 1013.4
20260505011051 18 269 3.2 8.0 0.00 0.00 0.00 22 1013.5
20260505010558 18 273 4.8 6.4 0.00 0.00 0.00 22 1013.5
20260505010105 18 296 1.6 6.4 0.00 0.00 0.00 22 1013.5
20260505005557 18 284 1.6 6.4 0.00 0.00 0.00 22 1013.5
20260505005104 18 227 3.2 11.3 0.00 0.00 0.00 22 1013.7
20260505004604 19 296 4.8 11.3 0.00 0.00 0.00 22 1013.7
20260505004059 19 289 3.2 11.3 0.00 0.00 0.00 22 1013.6
20260505003605 19 219 3.2 11.3 0.00 0.00 0.00 22 1013.9
20260505003008 19 297 4.8 12.9 0.00 0.00 0.00 22 1013.7
20260505002604 19 293 6.4 12.9 0.00 0.00 0.00 22 1013.9
20260505002007 19 317 6.4 9.7 0.00 0.00 0.00 22 1013.9
20260505001629 19 315 6.4 9.7 0.00 0.00 0.00 22 1014.0
20260505001003 19 311 3.2 16.1 0.00 0.00 0.00 21 1014.1
20260505000557 19 281 4.8 16.1 0.00 0.00 0.00 21 1014.1
20260505000104 19 300 9.7 16.1 0.00 0.00 0.00 21 1014.1
20260504235556 19 284 1.6 16.1 0.00 0.00 0.00 22 1014.0
20260504235049 19 292 8.0 16.1 0.00 0.00 0.00 22 1014.0
20260504234556 20 306 6.4 12.9 0.00 0.00 0.00 22 1014.1
20260504234044 20 309 3.2 12.9 0.00 0.00 0.00 22 1014.1
20260504233534 20 310 4.8 12.9 0.00 0.00 0.00 22 1014.1
20260504233055 20 293 3.2 16.1 0.00 0.00 0.00 21 1014.2
20260504232546 20 355 11.3 16.1 0.00 0.00 0.00 22 1014.2
20260504232054 20 325 4.8 17.7 0.00 0.00 0.00 21 1014.1
20260504231600 20 302 8.0 17.7 0.00 0.00 0.00 22 1014.2
20260504231002 20 324 4.8 12.9 0.00 0.00 0.00 21 1014.3
20260504230509 20 336 4.8 12.9 0.00 0.00 0.00 21 1014.3